Location: Unspecified
(48.8656°N, 0.0000°E)
Time: 10:52:13
(UTC+00:00)

Vanguard 1 Rocket - Pass Details

Date: 28 June 2019
Orbit: 651 x 4225 km, 34.3° (Epoch: 18 July)

Event Time Altitude Azimuth Distance (km) Brightness Sun altitude
Rises 12:36:45 0° 194° (SSW) 8,433 12.7 63.6°
Reaches altitude 10° 12:45:18 10° 181° (S) 7,388 12.6 63.1°
Maximum altitude 13:00:41 21° 143° (SE) 5,877 12.0 62.0°
Drops below altitude 10° 13:12:48 10° 103° (ESE) 5,802 11.5 61.0°
Sets 13:18:05 0° 89° (E) 6,257 11.5 60.5°
